FW5426 Weather Reports


Display with metric or nautical units.
time (UTC)temp
F
wind
direction
speed
MPH
gust
MPH
rain 1hr
in
rain 24hr
in
rain mn
in
humidity
%
barometer
mb
20260903182730 90 303 7.0 15.0 0.00 0.00 0.00 32 1018.9
20260903182229 90 309 9.0 17.0 0.00 0.00 0.00 32 1019.0
20260903181730 90 319 9.0 17.0 0.00 0.00 0.00 32 1019.0
20260903181452 90 263 9.0 16.0 0.00 0.00 0.00 32 1019.1
20260903180729 90 252 10.0 16.0 0.00 0.00 0.00 33 1019.2
20260903180226 90 293 9.0 16.0 0.00 0.00 0.00 32 1019.3
20260903175719 90 300 9.0 17.0 0.00 0.00 0.00 33 1019.3
20260903175215 90 294 10.0 17.0 0.00 0.00 0.00 33 1019.5
20260903174708 90 307 10.0 17.0 0.00 0.00 0.00 32 1019.5
20260903174208 90 252 9.0 16.0 0.00 0.00 0.00 33 1019.6
20260903173708 90 285 8.0 16.0 0.00 0.00 0.00 33 1019.6
20260903173438 89 277 8.0 15.0 0.00 0.00 0.00 34 1019.5
20260903172708 89 292 9.0 15.0 0.00 0.00 0.00 33 1019.6
20260903172207 88 272 9.0 16.0 0.00 0.00 0.00 35 1019.7
20260903171708 88 264 8.0 16.0 0.00 0.00 0.00 34 1019.7
20260903171208 88 242 9.0 18.0 0.00 0.00 0.00 34 1019.8
20260903170706 89 265 9.0 18.0 0.00 0.00 0.00 33 1019.7
20260903170206 89 355 9.0 18.0 0.00 0.00 0.00 34 1019.6
20260903165706 88 294 9.0 18.0 0.00 0.00 0.00 35 1019.7
20260903165206 88 311 9.0 17.0 0.00 0.00 0.00 35 1019.7
20260903164707 88 309 7.0 15.0 0.00 0.00 0.00 35 1019.7
20260903164425 89 307 6.0 15.0 0.00 0.00 0.00 33 1019.7
20260903163706 88 62 6.0 15.0 0.00 0.00 0.00 33 1019.6
20260903163205 88 294 6.0 16.0 0.00 0.00 0.00 34 1019.6
20260903162707 88 18 6.0 16.0 0.00 0.00 0.00 33 1019.6
20260903162206 89 15 3.0 12.0 0.00 0.00 0.00 33 1019.7
20260903161706 89 84 3.0 8.0 0.00 0.00 0.00 34 1019.6
20260903161206 87 188 4.0 8.0 0.00 0.00 0.00 35 1019.6
20260903160704 86 126 4.0 11.0 0.00 0.00 0.00 37 1019.6
20260903160202 86 183 5.0 11.0 0.00 0.00 0.00 37 1019.7
20260903155702 87 200 5.0 9.0 0.00 0.00 0.00 36 1019.6
20260903155202 87 155 3.0 9.0 0.00 0.00 0.00 36 1019.5
20260903154702 86 333 2.0 13.0 0.00 0.00 0.00 36 1019.6
20260903154202 86 129 5.0 13.0 0.00 0.00 0.00 37 1019.6
20260903153702 86 181 5.0 11.0 0.00 0.00 0.00 37 1019.6
20260903153201 85 265 7.0 16.0 0.00 0.00 0.00 38 1019.5
20260903152702 85 262 7.0 19.0 0.00 0.00 0.00 38 1019.3
20260903152201 85 332 6.0 19.0 0.00 0.00 0.00 38 1019.6
20260903151702 85 291 5.0 15.0 0.00 0.00 0.00 39 1019.5
20260903151201 85 329 4.0 11.0 0.00 0.00 0.00 38 1019.8
20260903150702 84 312 5.0 11.0 0.00 0.00 0.00 39 1019.6
20260903150202 84 5 5.0 11.0 0.00 0.00 0.00 40 1019.7
20260903145923 83 28 4.0 11.0 0.00 0.00 0.00 40 1019.8
20260903145202 83 66 4.0 12.0 0.00 0.00 0.00 41 1019.7
20260903144701 83 317 6.0 13.0 0.00 0.00 0.00 42 1019.7
20260903144202 82 22 7.0 13.0 0.00 0.00 0.00 43 1019.6
20260903143923 82 53 5.0 12.0 0.00 0.00 0.00 43 1019.6
20260903143650 83 41 4.0 12.0 0.00 0.00 0.00 41 1019.6
20260903142701 83 32 5.0 12.0 0.00 0.00 0.00 42 1019.6
20260903142418 83 34 5.0 11.0 0.00 0.00 0.00 41 1019.7
20260903141701 82 24 6.0 11.0 0.00 0.00 0.00 42 1019.7
20260903141200 82 5 4.0 10.0 0.00 0.00 0.00 41 1019.6
20260903140702 81 0 4.0 11.0 0.00 0.00 0.00 44 1019.7
20260903140420 81 340 6.0 11.0 0.00 0.00 0.00 44 1019.6
20260903135701 81 5 5.0 11.0 0.00 0.00 0.00 44 1019.5
20260903135202 81 28 4.0 11.0 0.00 0.00 0.00 44 1019.3
20260903135143 81 0 5.0 12.0 0.00 0.00 0.00 43 1019.3
20260903134201 81 160 5.0 12.0 0.00 0.00 0.00 42 1019.3
20260903133926 81 298 5.0 22.0 0.00 0.00 0.00 43 1019.3
20260903133202 81 45 5.0 22.0 0.00 0.00 0.00 43 1019.3
20260903132702 81 331 5.0 14.0 0.00 0.00 0.00 43 1019.3
20260903132201 80 252 6.0 12.0 0.00 0.00 0.00 44 1019.3
20260903131702 80 316 5.0 12.0 0.00 0.00 0.00 45 1019.3
20260903131423 79 204 4.0 11.0 0.00 0.00 0.00 45 1019.3
20260903130701 79 208 4.0 11.0 0.00 0.00 0.00 45 1019.3
20260903130429 79 131 4.0 9.0 0.00 0.00 0.00 45 1019.2
20260903125701 79 145 4.0 10.0 0.00 0.00 0.00 45 1019.1
20260903125202 78 80 4.0 10.0 0.00 0.00 0.00 46 1019.1
20260903124924 78 201 5.0 12.0 0.00 0.00 0.00 46 1019.0
20260903124201 78 124 6.0 12.0 0.00 0.00 0.00 47 1019.0
20260903123701 78 199 6.0 12.0 0.00 0.00 0.00 47 1019.1
20260903123202 78 213 7.0 21.0 0.00 0.00 0.00 47 1019.1
20260903122702 78 192 9.0 21.0 0.00 0.00 0.00 48 1019.0
20260903122423 77 191 11.0 22.0 0.00 0.00 0.00 48 1019.0
20260903121702 77 212 13.0 22.0 0.00 0.00 0.00 48 1018.9
20260903121654 77 250 14.0 22.0 0.00 0.00 0.00 48 1018.9
20260903120923 77 217 11.0 22.0 0.00 0.00 0.00 48 1019.0
20260903120201 78 217 10.0 21.0 0.00 0.00 0.00 47 1018.9
20260903115701 78 219 11.0 21.0 0.00 0.00 0.00 47 1018.8
20260903115201 78 225 13.0 23.0 0.00 0.00 0.00 47 1018.7
20260903114702 78 259 13.0 23.0 0.00 0.00 0.00 47 1018.7
20260903114201 78 235 11.0 22.0 0.00 0.00 0.00 47 1018.7
20260903113922 78 244 9.0 19.0 0.00 0.00 0.00 47 1018.7
20260903113202 79 213 8.0 15.0 0.00 0.00 0.00 46 1018.6
20260903112923 79 214 9.0 15.0 0.00 0.00 0.00 46 1018.6
20260903112202 79 250 8.0 15.0 0.00 0.00 0.00 45 1018.6
20260903111702 80 246 6.0 12.0 0.00 0.00 0.00 45 1018.6
20260903111201 80 308 5.0 10.0 0.00 0.00 0.00 44 1018.7
20260903110702 81 244 5.0 9.0 0.00 0.00 0.00 43 1018.4
20260903110201 80 196 3.0 9.0 0.00 0.00 0.00 43 1018.4
20260903105701 81 217 3.0 6.0 0.00 0.00 0.00 43 1018.2
20260903105201 81 130 4.0 9.0 0.00 0.00 0.00 43 1018.3
20260903104919 81 211 4.0 9.0 0.00 0.00 0.00 42 1018.3
20260903104430 81 185 6.0 13.0 0.00 0.00 0.00 41 1018.1
20260903103701 81 221 6.0 13.0 0.00 0.00 0.00 42 1018.2
20260903103201 80 151 4.0 9.0 0.00 0.00 0.00 43 1018.2
20260903102701 80 173 2.0 7.0 0.00 0.00 0.00 43 1018.2
20260903102202 80 155 2.0 6.0 0.00 0.00 0.00 43 1018.1
20260903101701 81 75 3.0 8.0 0.00 0.00 0.00 43 1018.2
20260903101201 81 130 4.0 10.0 0.00 0.00 0.00 43 1018.2
20260903100701 81 107 5.0 10.0 0.00 0.00 0.00 42 1018.2
20260903100642 81 88 4.0 8.0 0.00 0.00 0.00 42 1018.1
20260903095658 81 72 4.0 10.0 0.00 0.00 0.00 42 1018.2
20260903095158 81 125 5.0 10.0 0.00 0.00 0.00 42 1018.1
20260903094659 81 139 4.0 10.0 0.00 0.00 0.00 42 1018.1
20260903094158 81 67 2.0 8.0 0.00 0.00 0.00 42 1018.1
20260903093658 81 46 2.0 5.0 0.00 0.00 0.00 42 1018.1
20260903093640 81 103 2.0 5.0 0.00 0.00 0.00 42 1018.0
20260903092658 81 139 2.0 5.0 0.00 0.00 0.00 42 1018.1
20260903092157 81 55 2.0 7.0 0.00 0.00 0.00 41 1018.2
20260903091658 82 155 2.0 7.0 0.00 0.00 0.00 40 1018.2
20260903091157 82 117 1.0 6.0 0.00 0.00 0.00 40 1018.1
20260903090659 82 150 1.0 3.0 0.00 0.00 0.00 40 1018.0
20260903090416 82 173 2.0 8.0 0.00 0.00 0.00 39 1018.1
20260903085655 82 229 3.0 11.0 0.00 0.00 0.00 39 1018.1
20260903085156 81 96 3.0 11.0 0.00 0.00 0.00 39 1018.0
20260903084656 81 155 4.0 8.0 0.00 0.00 0.00 42 1018.1
20260903084156 81 133 4.0 7.0 0.00 0.00 0.00 42 1017.9
20260903083656 81 119 2.0 7.0 0.00 0.00 0.00 42 1017.9
20260903083156 81 33 1.0 4.0 0.00 0.00 0.00 43 1018.0
20260903082656 81 101 3.0 9.0 0.00 0.00 0.00 43 1017.8
20260903082419 81 132 4.0 9.0 0.00 0.00 0.00 43 1018.0
20260903081656 81 187 5.0 10.0 0.00 0.00 0.00 43 1018.0
20260903081156 81 207 6.0 16.0 0.00 0.00 0.00 43 1018.1
20260903080656 81 202 7.0 16.0 0.00 0.00 0.00 43 1018.1
20260903080156 81 201 8.0 16.0 0.00 0.00 0.00 42 1018.2
20260903075921 82 188 6.0 16.0 0.00 0.00 0.00 40 1018.1
20260903075156 82 252 5.0 12.0 0.00 0.00 0.00 40 1018.0
20260903074918 82 61 7.0 17.0 0.00 0.00 0.00 39 1018.0
20260903074153 82 237 10.0 17.0 0.00 0.00 0.00 39 1018.0
20260903073654 83 238 6.0 17.0 0.00 0.00 0.00 38 1018.2
20260903073152 83 211 2.0 10.0 0.00 0.00 0.00 34 1018.2
20260903072652 83 162 3.0 5.0 0.00 0.00 0.00 34 1018.1
20260903072153 83 205 2.0 5.0 0.00 0.00 0.00 34 1018.2
20260903071913 83 212 3.0 8.0 0.00 0.00 0.00 34 1018.1
20260903071150 83 45 4.0 8.0 0.00 0.00 0.00 34 1018.2
20260903070649 83 130 3.0 8.0 0.00 0.00 0.00 34 1018.1
20260903070147 83 55 3.0 7.0 0.00 0.00 0.00 34 1018.0
20260903065648 84 93 4.0 7.0 0.00 0.00 0.00 32 1018.0
20260903065148 86 88 4.0 9.0 0.00 0.00 0.00 31 1018.1
20260903064646 87 57 4.0 9.0 0.00 0.00 0.00 30 1018.0
20260903064146 86 5 4.0 9.0 0.00 0.00 0.00 30 1017.7
20260903063645 86 78 5.0 13.0 0.00 0.00 0.00 31 1017.8
20260903063145 85 71 5.0 13.0 0.00 0.00 0.00 31 1017.7
20260903062647 85 76 3.0 8.0 0.00 0.00 0.00 31 1017.7
20260903062144 85 74 2.0 5.0 0.00 0.00 0.00 31 1017.8
20260903061637 86 61 2.0 5.0 0.00 0.00 0.00 30 1017.8
20260903061137 87 47 4.0 12.0 0.00 0.00 0.00 30 1017.7
20260903060638 87 9 5.0 12.0 0.00 0.00 0.00 29 1017.9
20260903060622 87 317 6.0 11.0 0.00 0.00 0.00 29 1017.9
20260903055636 88 319 6.0 11.0 0.00 0.00 0.00 29 1017.9
20260903055135 88 246 7.0 12.0 0.00 0.00 0.00 30 1017.9
20260903054635 88 271 6.0 12.0 0.00 0.00 0.00 30 1017.9
20260903054135 88 273 4.0 11.0 0.00 0.00 0.00 30 1017.9
20260903053636 88 272 3.0 8.0 0.00 0.00 0.00 30 1017.8
20260903053135 88 319 4.0 10.0 0.00 0.00 0.00 29 1017.9
20260903052632 88 296 3.0 10.0 0.00 0.00 0.00 29 1017.9
20260903052352 87 302 1.0 6.0 0.00 0.00 0.00 30 1018.0
20260903051631 87 320 0.0 4.0 0.00 0.00 0.00 30 1018.0
20260903051132 87 168 0.0 2.0 0.00 0.00 0.00 30 1018.0
20260903050632 87 168 1.0 4.0 0.00 0.00 0.00 29 1017.9
20260903050132 87 176 1.0 4.0 0.00 0.00 0.00 29 1018.1
20260903045630 87 75 0.0 0.0 0.00 0.00 0.00 29 1018.1
20260903045129 88 166 0.0 0.0 0.00 0.00 0.00 29 1018.1
20260903044629 88 124 0.0 2.0 0.00 0.00 0.00 28 1018.0
20260903044353 88 124 0.0 2.0 0.00 0.00 0.00 28 1018.0
20260903043629 88 27 0.0 1.0 0.00 0.00 0.00 28 1018.0
20260903043129 88 29 1.0 4.0 0.00 0.00 0.00 28 1018.1
20260903042629 89 29 1.0 4.0 0.00 0.00 0.00 28 1018.0
20260903042129 89 15 1.0 4.0 0.00 0.00 0.00 28 1017.9
20260903041859 89 55 2.0 4.0 0.00 0.00 0.00 28 1018.0
20260903041130 89 53 2.0 4.0 0.00 0.00 0.00 28 1018.0
20260903040630 89 15 1.0 4.0 0.00 0.00 0.00 27 1018.0
20260903040129 89 19 1.0 3.0 0.00 0.00 0.00 27 1018.0
20260903035630 89 319 1.0 6.0 0.00 0.00 0.00 27 1017.9
20260903035129 89 328 2.0 6.0 0.00 0.00 0.00 27 1017.8
20260903034632 89 323 2.0 4.0 0.00 0.00 0.00 27 1017.9
20260903034129 89 300 2.0 4.0 0.00 0.00 0.00 27 1017.8
20260903033629 90 322 2.0 4.0 0.00 0.00 0.00 27 1017.7
20260903033130 90 294 2.0 4.0 0.00 0.00 0.00 27 1017.7
20260903032629 90 318 2.0 6.0 0.00 0.00 0.00 27 1017.8
20260903032357 90 294 1.0 6.0 0.00 0.00 0.00 27 1017.8
20260903031629 89 311 0.0 3.0 0.00 0.00 0.00 27 1017.7
20260903031349 90 255 0.0 3.0 0.00 0.00 0.00 27 1017.6
20260903030846 90 240 0.0 3.0 0.00 0.00 0.00 27 1017.6
20260903030350 90 296 0.0 3.0 0.00 0.00 0.00 27 1017.3
20260903030118 90 286 0.0 3.0 0.00 0.00 0.00 27 1017.3
20260903025351 90 270 1.0 3.0 0.00 0.00 0.00 27 1017.2
20260903024629 90 246 1.0 3.0 0.00 0.00 0.00 26 1017.2
20260903024130 90 294 1.0 3.0 0.00 0.00 0.00 26 1017.0
20260903024120 91 279 1.0 4.0 0.00 0.00 0.00 26 1017.0
20260903023353 91 276 2.0 4.0 0.00 0.00 0.00 26 1016.9
20260903022629 91 271 1.0 4.0 0.00 0.00 0.00 26 1016.9
20260903022132 91 286 1.0 4.0 0.00 0.00 0.00 26 1016.8
20260903021629 91 294 2.0 4.0 0.00 0.00 0.00 26 1016.9
20260903021129 91 285 1.0 4.0 0.00 0.00 0.00 26 1016.8
20260903020629 91 272 2.0 6.0 0.00 0.00 0.00 26 1016.8
20260903020127 92 263 3.0 7.0 0.00 0.00 0.00 26 1016.8
20260903015621 92 284 3.0 7.0 0.00 0.00 0.00 26 1016.8
20260903015115 92 304 3.0 8.0 0.00 0.00 0.00 25 1016.7
20260903014611 92 296 4.0 10.0 0.00 0.00 0.00 25 1016.7
20260903014111 92 291 3.0 10.0 0.00 0.00 0.00 25 1016.7
20260903013612 92 281 2.0 7.0 0.00 0.00 0.00 25 1016.5
20260903013333 92 314 3.0 8.0 0.00 0.00 0.00 25 1016.4
20260903012610 92 301 4.0 9.0 0.00 0.00 0.00 25 1016.4
20260903012112 93 282 4.0 9.0 0.00 0.00 0.00 24 1016.4
20260903011610 93 304 3.0 9.0 0.00 0.00 0.00 24 1016.3
20260903011111 94 261 3.0 8.0 0.00 0.00 0.00 23 1016.4
20260903010611 94 250 3.0 8.0 0.00 0.00 0.00 23 1016.3
20260903010111 94 281 2.0 8.0 0.00 0.00 0.00 22 1016.2
20260903005610 94 312 2.0 8.0 0.00 0.00 0.00 22 1016.2
20260903005112 94 340 3.0 9.0 0.00 0.00 0.00 22 1016.4
20260903004839 95 288 4.0 9.0 0.00 0.00 0.00 22 1016.4
20260903004111 95 355 4.0 8.0 0.00 0.00 0.00 21 1016.3
20260903003611 95 355 4.0 10.0 0.00 0.00 0.00 21 1016.3
20260903003108 96 325 5.0 12.0 0.00 0.00 0.00 21 1016.4
20260903002607 96 309 6.0 12.0 0.00 0.00 0.00 21 1016.3
20260903002106 96 319 6.0 12.0 0.00 0.00 0.00 21 1016.3
20260903001607 96 328 4.0 12.0 0.00 0.00 0.00 20 1016.3
20260903001107 96 300 4.0 10.0 0.00 0.00 0.00 20 1016.4
20260903000609 96 282 4.0 10.0 0.00 0.00 0.00 20 1016.2
20260903000527 97 271 4.0 11.0 0.00 0.00 0.00 20 1016.3
20260903000522 96 299 5.0 11.0 0.00 0.00 0.00 20 1016.4
20260902235106 96 231 5.0 11.0 0.00 0.00 0.00 20 1016.2
20260902234607 96 285 5.0 9.0 0.00 0.00 0.00 20 1016.3
20260902234107 97 338 4.0 9.0 0.00 0.00 0.00 20 1016.4
20260902233607 97 312 5.0 13.0 0.00 0.00 0.00 20 1016.5
20260902233107 97 251 5.0 13.0 0.00 0.00 0.00 20 1016.4
20260902232606 97 218 5.0 12.0 0.00 0.00 0.00 20 1016.4
20260902232330 97 280 6.0 12.0 0.00 0.00 0.00 20 1016.7
20260902231826 97 271 5.0 12.0 0.00 0.00 0.00 20 1016.7
20260902231107 97 285 4.0 10.0 0.00 0.00 0.00 20 1016.5
20260902230607 97 195 4.0 10.0 0.00 0.00 0.00 21 1016.7
20260902230326 96 244 6.0 12.0 0.00 0.00 0.00 21 1016.8
20260902225606 96 310 6.0 12.0 0.00 0.00 0.00 21 1016.9
20260902225106 96 46 4.0 9.0 0.00 0.00 0.00 21 1016.9
20260902224605 97 333 3.0 8.0 0.00 0.00 0.00 21 1016.9
20260902224105 97 36 4.0 10.0 0.00 0.00 0.00 21 1017.0
20260902223604 96 311 5.0 10.0 0.00 0.00 0.00 22 1017.1
20260902223101 96 316 5.0 10.0 0.00 0.00 0.00 21 1017.1
20260902222603 96 338 6.0 10.0 0.00 0.00 0.00 22 1017.1
20260902222103 96 217 6.0 12.0 0.00 0.00 0.00 22 1017.2
20260902221603 96 242 6.0 13.0 0.00 0.00 0.00 22 1017.2
20260902221103 97 263 5.0 13.0 0.00 0.00 0.00 22 1017.3
20260902220827 98 242 4.0 13.0 0.00 0.00 0.00 22 1017.3
20260902215602 96 229 5.0 12.0 0.00 0.00 0.00 22 1017.6
20260902215101 96 288 5.0 12.0 0.00 0.00 0.00 22 1017.4
20260902214602 96 225 5.0 11.0 0.00 0.00 0.00 23 1017.4
20260902214101 96 121 5.0 10.0 0.00 0.00 0.00 22 1017.6
20260902213602 96 112 6.0 10.0 0.00 0.00 0.00 22 1017.7
20260902213101 96 242 6.0 12.0 0.00 0.00 0.00 23 1017.7
20260902212601 96 250 6.0 16.0 0.00 0.00 0.00 23 1017.8
20260902212100 96 198 7.0 16.0 0.00 0.00 0.00 23 1017.9
20260902212048 96 236 5.0 13.0 0.00 0.00 0.00 23 1017.9
20260902211101 96 180 2.0 9.0 0.00 0.00 0.00 24 1018.0
20260902210600 95 280 2.0 7.0 0.00 0.00 0.00 24 1018.1
20260902210100 95 345 4.0 11.0 0.00 0.00 0.00 24 1018.1
20260902205600 95 239 6.0 15.0 0.00 0.00 0.00 24 1018.2
20260902205101 96 255 7.0 15.0 0.00 0.00 0.00 24 1018.3
20260902204600 96 254 7.0 14.0 0.00 0.00 0.00 24 1018.4
20260902204053 96 246 6.0 14.0 0.00 0.00 0.00 24 1018.4
20260902203546 96 271 5.0 10.0 0.00 0.00 0.00 24 1018.6
20260902203040 95 147 5.0 13.0 0.00 0.00 0.00 25 1018.7
20260902202535 95 223 7.0 13.0 0.00 0.00 0.00 25 1018.7
20260902202030 95 166 6.0 13.0 0.00 0.00 0.00 25 1018.7
20260902201531 94 236 3.0 9.0 0.00 0.00 0.00 26 1018.9
20260902201031 94 74 2.0 7.0 0.00 0.00 0.00 26 1019.0
20260902200531 94 312 4.0 12.0 0.00 0.00 0.00 26 1019.1
20260902200030 94 213 6.0 12.0 0.00 0.00 0.00 26 1019.2
20260902195530 94 254 6.0 16.0 0.00 0.00 0.00 25 1019.3
20260902195253 94 289 7.0 16.0 0.00 0.00 0.00 25 1019.3
20260902194529 93 215 7.0 13.0 0.00 0.00 0.00 26 1019.5
20260902194030 94 251 6.0 12.0 0.00 0.00 0.00 26 1019.6
20260902193530 93 225 5.0 12.0 0.00 0.00 0.00 26 1019.6
20260902193030 93 134 6.0 14.0 0.00 0.00 0.00 26 1019.7
20260902192530 93 265 6.0 14.0 0.00 0.00 0.00 26 1019.8
20260902192030 93 245 5.0 11.0 0.00 0.00 0.00 26 1019.8
20260902191530 94 284 7.0 13.0 0.00 0.00 0.00 25 1019.9
20260902191031 93 283 7.0 13.0 0.00 0.00 0.00 26 1019.9
20260902190530 93 234 6.0 13.0 0.00 0.00 0.00 27 1019.9
20260902190030 93 244 7.0 12.0 0.00 0.00 0.00 27 1020.0
20260902185530 92 242 8.0 15.0 0.00 0.00 0.00 27 1020.2
20260902185030 92 241 9.0 15.0 0.00 0.00 0.00 27 1020.2
20260902184530 93 253 7.0 14.0 0.00 0.00 0.00 27 1020.2
20260902184029 93 246 5.0 12.0 0.00 0.00 0.00 27 1020.4
20260902183530 92 260 5.0 12.0 0.00 0.00 0.00 28 1020.5
20260902183029 92 239 6.0 13.0 0.00 0.00 0.00 27 1020.6